sat.trackr.live / text

‹ back to catalog

STARLINK-32359

NORAD 61957 · 2024-209U

PAYLOAD ACTIVE UNKNOWN

§ Identity

Operator
Country
US
Launch date
2024-11-14
Launch site
AFWTR
Launch vehicle
Mass (kg)
RCS (m²)

Purposes: comms

External: N2YO · Heavens-Above · Gunter

§ Orbital elements

Epoch: 2026-05-24T17:28:02.983584Z

Period
93.37 min
Inclination
53.1589°
Eccentricity
0.0001219
Mean motion
15.42186437 rev/d
Perigee alt
438.8 km
Apogee alt
440.5 km
Semi-major
6,817.8 km
B*
8.1568e-4
RAAN
146.7285°
Arg perigee
99.7946°
Mean anomaly
260.3198°
Rev number
8,659

§ Raw data

STARLINK-323591 61957U 24209U   26144.72781231  .00035278  00000+0  81568-3 0  99982 61957  53.1589 146.7285 0001219  99.7946 260.3198 15.42186437 86599

JSON: /api/v1/satellites/61957 · /tle

For live sub-satellite position, see the globe view (requires WebGL).

§ Visibility from observer

Set your observer location to see the next 7 days of passes ≥ 10°. The values pass through the URL so the page stays shareable.

No JS? Fill the form by hand. The geolocation button needs JavaScript.